Tracking 22989 objects as of 8-May-2021
HD Live streaming from Space Station
objects crossing your sky now

THORAD AGENA D DEB

Track THORAD AGENA D DEB now!
10-day predictions


NORAD ID: 17719
Int'l Code: 1970-025PH
Perigee: 723.0 km
Apogee: 863.1 km
Inclination: 99.1 °
Period: 100.6 minutes
Semi major axis: 7164 km
RCS: 0.0123 m2 (small)
Launch date: April 8, 1970
Source: United States (US)
Launch site: AIR FORCE WESTERN TEST RANGE (AFWTR)

Note: This is SATELLITE DEBRIS
aabbcc
Your satellite tracking list
Your tracking list is empty




NASA's NSSDC Master Catalog

Two Line Element Set (TLE):
1 17719U 70025PH  21127.91358212  .00001453  00000-0  53323-3 0  9995
2 17719  99.0643 354.1431 0097789  82.2681 291.7273 14.31755850851123
Source of the keplerian elements: AFSPC